[[{"header":{"parameterUnit":"m.s-1","parameterCategory":1,"la1":30.2992,"la2":30.254,"lo1":-89.0895,"lo2":-89.0443,"dy":0.0025,"dx":0.0025,"nx":19,"ny":19,"refTime":"2026-03-13T03:00:00:Z","depth":0,"parameterNumber":2,"parameterNumberName":"U-component_of_WINDS"},"data":[0,0,0,-1.4872,-1.4873,-1.491,-1.491,-1.4964,-1.4965,0,0,0,0,0,0,0,0,0,0,0,-1.4865,-1.4866,-1.4872,-1.4873,-1.491,-1.491,-1.4964,-1.4965,0,0,0,0,0,0,0,0,0,0,0,-1.4865,-1.4866,-1.4866,-1.4873,-1.491,-1.491,-1.4964,-1.4934,0,0,0,0,0,0,0,0,0,0,-1.4897,-1.4895,-1.4866,-1.4866,-1.4874,-1.491,-1.491,-1.4932,-1.4936,-1.4951,0,-1.4965,0,-1.4966,-1.4969,-1.4969,0,0,0,-1.487,-1.4892,-1.4898,-1.4867,-1.4874,-1.491,-1.4893,-1.4934,-1.4938,-1.4955,-1.4966,-1.4967,-1.4967,-1.4969,-1.497,-1.5066,-1.5066,0,0,-1.4868,-1.4874,-1.4895,-1.4901,-1.4895,-1.4891,-1.4894,-1.4936,-1.4948,-1.4966,-1.4969,-1.4968,-1.497,-1.497,-1.5065,-1.5066,0,0,0,-1.4864,-1.4873,-1.4878,-1.4899,-1.4905,-1.4893,-1.4895,-1.4946,-1.4947,-1.4969,-1.4968,-1.497,-1.4971,-1.5064,-1.5065,-1.51,0,0,0,-1.4863,-1.4871,-1.4877,-1.4881,-1.4904,-1.4926,-1.4904,-1.4944,-1.4949,-1.4968,-1.497,-1.4972,-1.5064,-1.5065,-1.5098,-1.5116,0,0,0,-1.4862,-1.4871,-1.4877,-1.4882,-1.4898,-1.4925,-1.4928,-1.4945,-1.4949,-1.4969,-1.4972,-1.5063,-1.5065,-1.5096,-1.5112,-1.5143,0,0,0,-1.4862,-1.4908,-1.4878,-1.4929,-1.4897,-1.4946,-1.4928,-1.4964,-1.4986,-1.4971,-1.5064,-1.5065,-1.5095,-1.511,-1.514,-1.5169,-1.5182,0,0,-1.4923,-1.4915,-1.4945,-1.4919,-1.4975,-1.494,-1.5001,-1.5015,-1.5012,-1.5048,-1.505,-1.5099,-1.5112,-1.5142,-1.5251,-1.5261,0,0,0,-1.4966,-1.4987,-1.5001,-1.5022,-1.5034,-1.5046,-1.505,-1.5056,-1.5086,-1.5032,-1.5118,-1.5125,-1.5143,-1.5156,-1.5165,-1.518,-1.5072,-1.5072,-1.5071,-1.5061,-1.5054,-1.5103,-1.51,-1.5121,-1.5125,-1.5142,-1.515,-1.5137,-1.5157,-1.5168,-1.5234,-1.525,-1.5257,-1.5272,-1.5182,-1.5183,-1.5183,-1.5183,-1.515,-1.5179,-1.5161,-1.5201,-1.5194,-1.5228,-1.5234,-1.5223,-1.5254,-1.5226,-1.5241,-1.521,-1.5268,-1.5281,-1.5185,-1.5185,-1.5185,-1.5184,-1.5184,-1.5212,-1.5224,-1.523,-1.526,-1.5284,-1.528,-1.531,-1.5303,-1.5295,-1.531,-1.5321,-1.532,-1.5319,-1.5316,-1.5316,-1.5316,-1.5317,-1.5317,-1.5317,-1.5273,-1.5278,-1.5305,-1.5322,-1.5334,-1.535,-1.5355,-1.5367,-1.5379,-1.5371,-1.5371,-1.5356,-1.5275,-1.5255,-1.5321,-1.532,-1.5319,-1.5319,-1.5319,-1.5366,-1.5343,-1.5384,-1.5397,-1.5416,-1.544,-1.543,-1.5456,-1.5465,-1.5481,-1.5463,-1.5404,-1.5395,-1.5388,-1.5372,-1.5464,-1.5464,-1.5464,-1.5464,-1.5417,-1.5412,-1.5452,-1.5473,-1.5492,-1.5487,-1.5534,-1.5539,-1.554,-1.5545,-1.5531,-1.5508,-1.5501,-1.5497,-1.5488,-1.5472,-1.5587,-1.5587,-1.5588,-1.5474,-1.547,-1.5511,-1.5512,-1.5527,-1.5539,-1.5583,-1.5608,-1.5605,-1.5592,-1.5549,-1.5544,-1.5507,-1.5495,-1.5481,-1.5467,-1.5438,0,0]},{"header":{"parameterUnit":"m.s-1","parameterCategory":1,"la1":30.2992,"la2":30.254,"lo1":-89.0895,"lo2":-89.0443,"dy":0.0025,"dx":0.0025,"nx":19,"ny":19,"refTime":"2026-03-13T03:00:00:Z","depth":0,"parameterNumber":3,"parameterNumberName":"V-component_of_WINDS"},"data":[0,0,0,3.6303,3.6305,3.6385,3.6385,3.6489,3.649,0,0,0,0,0,0,0,0,0,0,0,3.6283,3.6283,3.6303,3.6305,3.6385,3.6385,3.6489,3.649,0,0,0,0,0,0,0,0,0,0,0,3.6282,3.6283,3.6284,3.6305,3.6385,3.6385,3.6488,3.6427,0,0,0,0,0,0,0,0,0,0,3.6348,3.6334,3.6283,3.6284,3.6306,3.6385,3.6385,3.6424,3.6431,3.6454,0,3.6478,0,3.6486,3.6497,3.6497,0,0,0,3.6301,3.6328,3.6347,3.6284,3.6306,3.6385,3.6348,3.6428,3.6435,3.6463,3.6479,3.6483,3.6487,3.6498,3.6498,3.6648,3.6649,0,0,3.6297,3.6298,3.6342,3.6352,3.6343,3.6345,3.635,3.6432,3.6449,3.648,3.6485,3.6489,3.6498,3.6499,3.6647,3.6648,0,0,0,3.6286,3.6295,3.6312,3.6348,3.6363,3.6348,3.6354,3.6446,3.6451,3.6487,3.649,3.6499,3.65,3.6646,3.6647,3.669,0,0,0,3.6284,3.6289,3.631,3.6312,3.6361,3.6406,3.6365,3.6445,3.6455,3.649,3.6499,3.6501,3.6645,3.6647,3.6687,3.6709,0,0,0,3.6276,3.6288,3.6302,3.6312,3.6347,3.6405,3.6415,3.6447,3.6457,3.6498,3.6502,3.6645,3.6646,3.6684,3.6705,3.6747,0,0,0,3.6268,3.6339,3.6302,3.6383,3.6346,3.6432,3.6414,3.6478,3.6518,3.65,3.6645,3.6647,3.6683,3.6702,3.6744,3.6781,3.6798,0,0,3.6358,3.635,3.6397,3.6367,3.646,3.642,3.6518,3.6552,3.6554,3.6615,3.6619,3.6688,3.6704,3.6746,3.6894,3.6907,0,0,0,3.6426,3.646,3.6484,3.6523,3.6553,3.6578,3.6598,3.661,3.6662,3.6587,3.6716,3.6726,3.675,3.6768,3.6779,3.6798,3.6656,3.6656,3.6656,3.6555,3.6554,3.6631,3.664,3.6678,3.6697,3.6726,3.6745,3.6733,3.6764,3.6781,3.6871,3.6892,3.69,3.6921,3.6803,3.6803,3.6803,3.6804,3.6685,3.6731,3.6714,3.6782,3.6779,3.6836,3.6856,3.6845,3.6895,3.6859,3.688,3.6838,3.6915,3.6932,3.6807,3.6806,3.6806,3.6806,3.6805,3.6767,3.6788,3.6804,3.6858,3.69,3.6906,3.6954,3.6951,3.6947,3.6969,3.6985,3.6984,3.698,3.6977,3.6978,3.6978,3.6978,3.6978,3.6979,3.6845,3.686,3.6903,3.6939,3.6962,3.6992,3.7011,3.7033,3.7055,3.7048,3.7049,3.7031,3.6924,3.6896,3.6983,3.6982,3.6982,3.6981,3.6981,3.6972,3.6942,3.7008,3.7031,3.7072,3.7111,3.7107,3.7151,3.7168,3.7192,3.717,3.7093,3.7083,3.7074,3.705,3.7173,3.7173,3.7173,3.7173,3.7039,3.7034,3.7099,3.7136,3.7172,3.7174,3.7244,3.7258,3.7268,3.7278,3.726,3.7229,3.722,3.7216,3.7204,3.7181,3.7334,3.7334,3.7334,3.7115,3.7114,3.7175,3.7187,3.7218,3.7243,3.7308,3.7348,3.7353,3.7341,3.7285,3.7278,3.7228,3.7212,3.7196,3.7178,3.7136,0,0]}]]